This demonstration page uses our WeatherBlox Daily Observations layout. Learn more.

Left ArrowRight Arrow

39.92423, -83.80882

Hourly Observations for November 28, 2021

Temp ( °F °C ) Dew Point ( °F °C ) Humidity (%) Winds ( mph kmh ) Pressure ( in mb ) Visibility ( mi km ) Precip ( " mm )
12:56 am 00:56 Clear 39 3.9 32 undefined 76 76 W 14 22 29.84 1011 10 16 N/A
1:56 am 01:56 Clear 36 2.2 34 1.1 93 93 W 10 17 29.85 1011 10 16 N/A
2:53 am 02:53 Mostly Cloudy 37 3 36 2 93 93 WNW 12 19 29.89 1012 10 16 N/A
2:56 am 02:56 Mostly Cloudy 37 2.8 36 2.2 96 96 WNW 14 22 29.88 1012 10 16 N/A
3:45 am 03:45 Cloudy 37 3 37 3 100 100 WNW 15 24 29.91 1013 10 16 N/A
3:56 am 03:56 Cloudy 38 3.3 37 2.8 97 97 WNW 12 19 29.89 1012 10 16 N/A
4:56 am 04:56 Cloudy 37 2.8 37 2.8 100 100 WNW 12 19 29.91 1013 10 16 N/A
5:56 am 05:56 Cloudy 37 2.8 35 1.7 93 93 WNW 9 15 29.94 1014 10 16 N/A
6:37 am 06:37 Cloudy 36 2 36 2 100 100 WNW 8 13 29.96 1015 10 16 N/A
6:56 am 06:56 Cloudy 36 2.2 35 1.7 97 97 WNW 9 15 29.96 1015 10 16 N/A
7:54 am 07:54 Partly Cloudy 34 1 34 1 100 100 W 8 13 29.98 1015 10 16 N/A
7:56 am 07:56 Mostly Sunny 33 0.6 33 0.6 100 100 W 7 11 29.96 1015 10 16 N/A
8:18 am 08:18 Mostly Cloudy 36 2 34 1 93 93 WSW 8 13 29.97 1015 9 14 N/A
8:53 am 08:53 Cloudy 36 2 36 2 100 100 W 9 15 29.98 1015 10 16 N/A
8:56 am 08:56 Cloudy 36 2.2 36 2.2 100 100 W 10 17 29.97 1015 10 16 N/A
9:23 am 09:23 Cloudy 36 2 34 1 93 93 WNW 17 28 30.00 1016 10 16 N/A
9:56 am 09:56 Cloudy 36 2.2 34 1.1 93 93 W 12 19 29.98 1015 10 16 N/A
10:56 am 10:56 Cloudy 36 2.2 33 0.6 89 89 W 13 20 29.98 1015 10 16 N/A
11:27 am 11:27 Cloudy 37 3 32 undefined 81 81 W 18 30 29.98 1015 10 16 N/A
11:56 am 11:56 Cloudy 38 3.3 33 0.6 83 83 W 14 22 29.96 1015 10 16 N/A
12:56 pm 12:56 Cloudy 39 3.9 31 -0.6 73 73 W 17 28 29.95 1014 10 16 N/A
1:27 pm 13:27 Mostly Cloudy 41 5 30 -1 66 66 W 17 28 29.94 1014 10 16 N/A
1:56 pm 13:56 Mostly Sunny 42 5.6 28 -2.2 58 58 W 22 35 29.93 1014 10 16 N/A
2:56 pm 14:56 Partly Cloudy 42 5.6 26 -3.3 53 53 WNW 17 28 29.93 1014 10 16 N/A
3:56 pm 15:56 Mostly Cloudy 38 3.3 21 -6.1 51 51 WNW 20 31 29.96 1015 10 16 N/A
4:56 pm 16:56 Partly Cloudy 36 2.2 23 -5 59 59 WNW 18 30 30.00 1016 10 16 N/A
5:56 pm 17:56 Partly Cloudy 33 0.6 22 -5.6 64 64 WNW 15 24 30.03 1017 10 16 N/A
6:56 pm 18:56 Clear 32 undefined 23 -5 69 69 WNW 12 19 30.06 1018 10 16 N/A
7:56 pm 19:56 Mostly Clear 30 -1.1 23 -5 75 75 W 14 22 30.08 1019 10 16 N/A
8:56 pm 20:56 Cloudy 30 -1.1 23 -5 75 75 WNW 13 20 30.09 1019 10 16 N/A
9:56 pm 21:56 Mostly Clear 29 -1.7 23 -5 78 78 W 12 19 30.09 1019 10 16 N/A
10:56 pm 22:56 Clear 28 -2.2 23 -5 81 81 W 13 20 30.10 1019 10 16 N/A
11:56 pm 23:56 Clear 28 -2.2 23 -5 81 81 W 12 19 30.12 1020 10 16 N/A

Powered by AerisWeather